{"data":{"norad_id":63202,"intl_designator":"2025-048V","name":"STARLINK-32935","alt_names":[],"object_type":"PAYLOAD","status":"ACTIVE","operator":null,"country":"US","launch_date":"2025-03-13","launch_site_code":"AFETR","launch_vehicle":null,"mission":null,"orbit_class":"UNKNOWN","rcs_meters":null,"size_class":null,"mass_kg":null,"dimensions":null,"purposes":["comms"],"wikipedia_slug":null,"has_3d_model":false,"image_url":null,"decayed_at":null,"tle_current":{"epoch":"2026-09-21T03:55:23.473632Z","epoch_age_seconds":104921,"freshness":"FRESH","line1":"1 63202U 25048V   26264.16346613  .00016632  00000+0  61235-3 0  9999","line2":"2 63202  43.0035  61.7062 0001440 265.0185  95.0503 15.27591356 86985","mean_motion":15.27591356,"eccentricity":0.000144,"inclination_deg":43.0035,"raan_deg":61.7062,"arg_perigee_deg":265.0185,"mean_anomaly_deg":95.0503,"bstar":0.00061235,"rev_number":8698,"period_min":94.266047941685,"perigee_km":482.02708639971,"apogee_km":484.0030982023,"semimajor_km":6861.152092301,"source":"CELESTRAK","updated_at":"2026-09-22T09:00:49.798594Z"}}}